• In Deutschland
  • Länderverzeichnis
  • Für 7 Tage
  • Wassertemperatur
  • Satellitenkarten
  • Wetterkarte
  • Widgets
  • user-avatar
    Anmelden

    Stündliche Wetter Kętrzyn

    Heute, 24 September, Montag

    Zeit Temperatur Niederschläge Wind Luftdruck Luftfeuchtigkeit
    00:00 +10°C° 0.8 mm 1 m/S 744 mmHg 87%
    01:00 +9°C° 0 mm 2 m/S 743 mmHg 90%
    02:00 +9°C° 0.8 mm 2 m/S 743 mmHg 90%
    03:00 +8°C° 0.8 mm 3 m/S 744 mmHg 91%
    04:00 +7°C° 0.8 mm 4 m/S 744 mmHg 92%
    05:00 +8°C° 0.2 mm 4 m/S 744 mmHg 90%
    06:00 +8°C° 0.2 mm 4 m/S 745 mmHg 89%
    07:00 +8°C° 0 mm 5 m/S 745 mmHg 86%
    08:00 +9°C° 0.3 mm 5 m/S 745 mmHg 80%
    09:00 +10°C° 0.3 mm 6 m/S 746 mmHg 74%
    10:00 +11°C° 0.3 mm 7 m/S 747 mmHg 68%
    11:00 +11°C° 0.5 mm 7 m/S 747 mmHg 67%
    12:00 +11°C° 0.5 mm 7 m/S 748 mmHg 67%
    13:00 +11°C° 0 mm 8 m/S 748 mmHg 63%
    14:00 +11°C° 0.1 mm 7 m/S 749 mmHg 63%
    15:00 +10°C° 0.1 mm 7 m/S 750 mmHg 64%
    16:00 +10°C° 0.1 mm 7 m/S 751 mmHg 65%
    17:00 +9°C° 0 mm 6 m/S 751 mmHg 68%
    18:00 +7°C° 0 mm 5 m/S 752 mmHg 72%
    19:00 +6°C° 0 mm 5 m/S 753 mmHg 75%
    20:00 +6°C° 0 mm 4 m/S 753 mmHg 77%
    21:00 +6°C° 0 mm 4 m/S 754 mmHg 78%
    22:00 +5°C° 0 mm 4 m/S 754 mmHg 80%
    23:00 +5°C° 0.1 mm 3 m/S 755 mmHg 81%

    Morgen, 25 September, Dienstag

    Zeit Temperatur Niederschläge Wind Luftdruck Luftfeuchtigkeit
    00:00 +5°C° 0.1 mm 3 m/S 755 mmHg 81%
    01:00 +5°C° 0.1 mm 3 m/S 756 mmHg 82%
    02:00 +5°C° 0.1 mm 3 m/S 756 mmHg 83%
    03:00 +5°C° 0.1 mm 3 m/S 757 mmHg 83%
    04:00 +5°C° 0.1 mm 3 m/S 757 mmHg 83%
    05:00 +6°C° 0.1 mm 4 m/S 758 mmHg 81%
    06:00 +6°C° 0.1 mm 4 m/S 758 mmHg 80%
    07:00 +7°C° 0.1 mm 4 m/S 759 mmHg 78%
    08:00 +8°C° 0.2 mm 5 m/S 760 mmHg 73%
    09:00 +8°C° 0.2 mm 6 m/S 760 mmHg 68%
    10:00 +9°C° 0.2 mm 7 m/S 761 mmHg 63%
    11:00 +10°C° 0.1 mm 7 m/S 761 mmHg 61%
    12:00 +10°C° 0.1 mm 7 m/S 762 mmHg 58%
    13:00 +10°C° 0.1 mm 7 m/S 762 mmHg 55%
    14:00 +10°C° 0.1 mm 7 m/S 763 mmHg 56%
    15:00 +9°C° 0.1 mm 6 m/S 763 mmHg 58%
    16:00 +9°C° 0.1 mm 6 m/S 764 mmHg 59%
    17:00 +8°C° 0 mm 5 m/S 764 mmHg 65%
    18:00 +6°C° 0 mm 4 m/S 765 mmHg 70%
    19:00 +5°C° 0 mm 3 m/S 765 mmHg 76%
    20:00 +5°C° 0 mm 3 m/S 765 mmHg 77%
    21:00 +4°C° 0 mm 3 m/S 766 mmHg 79%
    22:00 +5°C° 0 mm 2 m/S 766 mmHg 81%
    23:00 +5°C° 0 mm 2 m/S 766 mmHg 79%

    übermorgen, 26 September, Mittwoch

    Zeit Temperatur Niederschläge Wind Luftdruck Luftfeuchtigkeit
    00:00 +4°C° 0 mm 3 m/S 766 mmHg 77%
    01:00 +3°C° 0 mm 3 m/S 766 mmHg 76%
    02:00 +3°C° 0 mm 3 m/S 766 mmHg 74%
    03:00 +3°C° 0 mm 3 m/S 766 mmHg 72%
    04:00 +3°C° 0 mm 4 m/S 766 mmHg 70%
    05:00 +4°C° 0 mm 4 m/S 766 mmHg 71%
    06:00 +5°C° 0 mm 4 m/S 766 mmHg 73%
    07:00 +5°C° 0 mm 5 m/S 766 mmHg 74%
    08:00 +7°C° 0 mm 5 m/S 765 mmHg 70%
    09:00 +9°C° 0 mm 6 m/S 765 mmHg 65%
    10:00 +11°C° 0 mm 7 m/S 764 mmHg 61%
    11:00 +11°C° 0 mm 7 m/S 764 mmHg 59%
    12:00 +12°C° 0 mm 7 m/S 763 mmHg 58%
    13:00 +12°C° 0 mm 8 m/S 763 mmHg 56%
    14:00 +11°C° 0.2 mm 7 m/S 762 mmHg 62%
    15:00 +10°C° 0.2 mm 7 m/S 761 mmHg 69%
    16:00 +9°C° 0.2 mm 7 m/S 761 mmHg 75%
    17:00 +9°C° 0.2 mm 7 m/S 760 mmHg 76%
    18:00 +8°C° 0.2 mm 7 m/S 760 mmHg 77%
    19:00 +7°C° 0.2 mm 8 m/S 759 mmHg 78%
    20:00 +7°C° 0.2 mm 8 m/S 759 mmHg 77%
    21:00 +9°C° 0.2 mm 7 m/S 758 mmHg 75%
    22:00 +9°C° 0.2 mm 7 m/S 757 mmHg 73%
    23:00 +10°C° 0.2 mm 7 m/S 757 mmHg 73%

    27 September, Donnerstag

    Zeit Temperatur Niederschläge Wind Luftdruck Luftfeuchtigkeit
    00:00 +10°C° 0.2 mm 8 m/S 756 mmHg 73%
    01:00 +10°C° 0.2 mm 8 m/S 756 mmHg 72%
    02:00 +11°C° 0.2 mm 8 m/S 755 mmHg 75%
    03:00 +11°C° 0.2 mm 8 m/S 755 mmHg 78%
    04:00 +12°C° 0.2 mm 8 m/S 755 mmHg 82%
    05:00 +12°C° 0.5 mm 8 m/S 755 mmHg 84%
    06:00 +13°C° 0.5 mm 8 m/S 755 mmHg 86%
    07:00 +14°C° 0.5 mm 7 m/S 755 mmHg 88%
    08:00 +14°C° 0.5 mm 7 m/S 755 mmHg 89%
    09:00 +14°C° 0.5 mm 7 m/S 755 mmHg 90%
    10:00 +14°C° 0.5 mm 7 m/S 756 mmHg 91%
    11:00 +15°C° 0.2 mm 6 m/S 756 mmHg 89%
    12:00 +15°C° 0.2 mm 6 m/S 756 mmHg 88%
    13:00 +15°C° 0.2 mm 6 m/S 756 mmHg 87%
    14:00 +15°C° 0.2 mm 6 m/S 756 mmHg 87%
    15:00 +15°C° 0.2 mm 6 m/S 756 mmHg 87%
    16:00 +15°C° 0.2 mm 6 m/S 756 mmHg 87%
    17:00 +15°C° 0.1 mm 6 m/S 756 mmHg 88%
    18:00 +14°C° 0.1 mm 5 m/S 756 mmHg 90%
    19:00 +14°C° 0.1 mm 5 m/S 756 mmHg 92%
    20:00 +14°C° 0 mm 5 m/S 756 mmHg 92%
    21:00 +13°C° 0 mm 5 m/S 756 mmHg 92%
    22:00 +13°C° 0 mm 6 m/S 755 mmHg 91%
    23:00 +13°C° 0 mm 6 m/S 755 mmHg 91%

    28 September, Freitag

    Zeit Temperatur Niederschläge Wind Luftdruck Luftfeuchtigkeit
    00:00 +13°C° 0 mm 6 m/S 754 mmHg 90%
    01:00 +14°C° 0 mm 6 m/S 754 mmHg 89%
    02:00 +14°C° 0 mm 6 m/S 753 mmHg 89%
    03:00 +14°C° 0 mm 6 m/S 753 mmHg 89%
    04:00 +14°C° 0 mm 6 m/S 752 mmHg 88%
    05:00 +14°C° 0.2 mm 7 m/S 752 mmHg 87%
    06:00 +14°C° 0.2 mm 7 m/S 752 mmHg 86%
    07:00 +14°C° 0.2 mm 7 m/S 752 mmHg 86%
    08:00 +14°C° 0.1 mm 7 m/S 753 mmHg 79%
    09:00 +14°C° 0.1 mm 7 m/S 753 mmHg 72%
    10:00 +14°C° 0.1 mm 7 m/S 754 mmHg 66%
    11:00 +14°C° 0 mm 7 m/S 754 mmHg 61%
    12:00 +15°C° 0 mm 6 m/S 755 mmHg 56%
    13:00 +15°C° 0 mm 6 m/S 755 mmHg 51%
    14:00 +14°C° 0 mm 5 m/S 755 mmHg 55%
    15:00 +14°C° 0 mm 5 m/S 755 mmHg 58%
    16:00 +13°C° 0 mm 4 m/S 755 mmHg 62%
    17:00 +12°C° 0 mm 3 m/S 755 mmHg 69%
    18:00 +10°C° 0 mm 3 m/S 756 mmHg 76%
    19:00 +9°C° 0 mm 2 m/S 756 mmHg 83%
    20:00 +9°C° 0 mm 2 m/S 756 mmHg 82%
    21:00 +9°C° 0 mm 2 m/S 756 mmHg 82%
    22:00 +9°C° 0 mm 2 m/S 756 mmHg 81%
    23:00 +9°C° 0 mm 2 m/S 756 mmHg 80%

    29 September, Samstag

    Zeit Temperatur Niederschläge Wind Luftdruck Luftfeuchtigkeit
    00:00 +8°C° 0 mm 2 m/S 756 mmHg 79%
    01:00 +8°C° 0 mm 2 m/S 756 mmHg 79%
    02:00 +8°C° 0 mm 2 m/S 757 mmHg 82%
    03:00 +7°C° 0 mm 2 m/S 757 mmHg 84%
    04:00 +6°C° 0 mm 2 m/S 757 mmHg 87%
    05:00 +7°C° 0 mm 1 m/S 757 mmHg 86%
    06:00 +8°C° 0 mm 1 m/S 758 mmHg 84%
    07:00 +8°C° 0 mm 1 m/S 758 mmHg 83%
    08:00 +9°C° 0 mm 2 m/S 758 mmHg 74%
    09:00 +10°C° 0 mm 2 m/S 759 mmHg 66%
    10:00 +13°C° 0 mm 2 m/S 759 mmHg 57%
    11:00 +13°C° 0 mm 2 m/S 759 mmHg 53%
    12:00 +14°C° 0 mm 2 m/S 759 mmHg 49%
    13:00 +14°C° 0 mm 2 m/S 759 mmHg 45%
    14:00 +14°C° 0 mm 2 m/S 759 mmHg 48%
    15:00 +14°C° 0 mm 2 m/S 759 mmHg 50%
    16:00 +13°C° 0 mm 1 m/S 759 mmHg 53%
    17:00 +12°C° 0 mm 1 m/S 760 mmHg 56%
    18:00 +10°C° 0 mm 1 m/S 760 mmHg 60%
    19:00 +9°C° 0 mm 1 m/S 760 mmHg 64%
    20:00 +7°C° 0 mm 2 m/S 760 mmHg 64%
    21:00 +7°C° 0 mm 2 m/S 760 mmHg 65%
    22:00 +7°C° 0 mm 2 m/S 760 mmHg 66%
    23:00 +7°C° 0 mm 3 m/S 759 mmHg 66%
    Mehr zeigen